BLY817K EGCC-GMMX

Flight info

Callsign BLY817K
Flight time N/A
Altitude 40000
Route KUXEM P17 BEPHE DCT OSSEP DCT OXCUD DCT ELNIF DCT ZESPE DCT KLAKI DCT SALCO DCT BALDA DCT BATAX DCT ALAGU DCT AMSEL UR722 MABAP
Aircraft A332/H-SDE3GHIJ2J3J5M1RVWXY/LB2D1

Departure

Time 2026-05-07 23:09
Airport Manchester Airport (EGCC)

Arrival

Time N/A
Airport Marrakesh Menara Airport (GMMX)
Time Latitude Longitude Altitude Speed Heading
2026-05-07 22:43 53.36698 -2.28470 259 ft 0 kts 135°
2026-05-07 22:58 53.36702 -2.28477 259 ft 4 kts 135°
2026-05-07 22:58 53.36721 -2.28509 259 ft 4 kts 135°
2026-05-07 22:59 53.36739 -2.28540 259 ft 2 kts 135°
2026-05-07 22:59 53.36754 -2.28560 259 ft 4 kts 185°
2026-05-07 22:59 53.36775 -2.28543 259 ft 3 kts 224°
2026-05-07 22:59 53.36794 -2.28512 259 ft 4 kts 224°
2026-05-07 23:00 53.36803 -2.28496 259 ft 0 kts 224°
2026-05-07 23:01 53.36799 -2.28503 259 ft 5 kts 224°
2026-05-07 23:02 53.36764 -2.28562 259 ft 9 kts 225°
2026-05-07 23:02 53.36715 -2.28643 259 ft 11 kts 225°
2026-05-07 23:02 53.36654 -2.28744 259 ft 13 kts 224°
2026-05-07 23:02 53.36576 -2.28751 259 ft 13 kts 142°
2026-05-07 23:03 53.36507 -2.28634 259 ft 15 kts 134°
2026-05-07 23:03 53.36430 -2.28500 259 ft 17 kts 130°
2026-05-07 23:03 53.36366 -2.28324 259 ft 19 kts 133°
2026-05-07 23:03 53.36270 -2.28158 259 ft 21 kts 134°
2026-05-07 23:04 53.36165 -2.27986 259 ft 22 kts 140°
2026-05-07 23:04 53.36086 -2.27883 259 ft 12 kts 142°
2026-05-07 23:04 53.36014 -2.27789 259 ft 14 kts 142°
2026-05-07 23:04 53.35917 -2.27726 259 ft 16 kts 178°
2026-05-07 23:05 53.35809 -2.27714 256 ft 17 kts 152°
2026-05-07 23:05 53.35699 -2.27620 251 ft 18 kts 153°
2026-05-07 23:05 53.35620 -2.27499 249 ft 13 kts 104°
2026-05-07 23:05 53.35657 -2.27377 255 ft 9 kts 51°
2026-05-07 23:06 53.35721 -2.27245 259 ft 20 kts 51°
2026-05-07 23:06 53.35809 -2.27054 259 ft 21 kts 58°
2026-05-07 23:06 53.35879 -2.26880 259 ft 15 kts 51°
2026-05-07 23:06 53.35945 -2.26726 260 ft 17 kts 53°
2026-05-07 23:07 53.36024 -2.26562 259 ft 19 kts 50°
2026-05-07 23:07 53.36112 -2.26380 259 ft 21 kts 51°
2026-05-07 23:07 53.36194 -2.26243 259 ft 15 kts 35°
2026-05-07 23:07 53.36263 -2.26107 259 ft 16 kts 62°
2026-05-07 23:08 53.36281 -2.25941 259 ft 15 kts 70°
2026-05-07 23:08 53.36268 -2.25785 263 ft 12 kts 126°
2026-05-07 23:08 53.36203 -2.25783 263 ft 12 kts 220°
2026-05-07 23:08 53.36056 -2.26086 260 ft 66 kts 231°
2026-05-07 23:09 53.35623 -2.26986 263 ft 132 kts 231°
2026-05-07 23:09 53.34917 -2.28429 449 ft 176 kts 231°
2026-05-07 23:09 53.34152 -2.29993 1489 ft 167 kts 229°
2026-05-07 23:09 53.33410 -2.31496 2377 ft 175 kts 229°
2026-05-07 23:10 53.32611 -2.33219 2912 ft 199 kts 236°
2026-05-07 23:10 53.32154 -2.35586 3292 ft 234 kts 266°
2026-05-07 23:10 53.32345 -2.38407 4016 ft 250 kts 278°
2026-05-07 23:10 53.32629 -2.41313 4672 ft 254 kts 270°
2026-05-07 23:11 53.32432 -2.44229 4967 ft 253 kts 255°
2026-05-07 23:11 53.31961 -2.47059 4989 ft 253 kts 251°
2026-05-07 23:11 53.31435 -2.49878 4995 ft 254 kts 251°
2026-05-07 23:11 53.30904 -2.52702 4991 ft 254 kts 251°
2026-05-07 23:12 53.30377 -2.55526 4991 ft 254 kts 251°
2026-05-07 23:12 53.29805 -2.58328 4995 ft 255 kts 246°
2026-05-07 23:12 53.29096 -2.61044 5083 ft 255 kts 244°
2026-05-07 23:12 53.28300 -2.63665 5667 ft 257 kts 236°
2026-05-07 23:13 53.27093 -2.65862 6707 ft 258 kts 219°
2026-05-07 23:13 53.25655 -2.67652 7814 ft 258 kts 215°
2026-05-07 23:13 53.24187 -2.69364 8936 ft 258 kts 214°
2026-05-07 23:13 53.22704 -2.71059 10028 ft 259 kts 214°
2026-05-07 23:14 53.21180 -2.72790 10686 ft 275 kts 214°
2026-05-07 23:14 53.19529 -2.74672 11050 ft 299 kts 215°
2026-05-07 23:14 53.17766 -2.76689 11587 ft 314 kts 215°
2026-05-07 23:14 53.15940 -2.78785 12339 ft 323 kts 215°